Location: Melque
(41.0517°N, 4.4694°W)
Time: 22:23:09
(UTC+00:00)

USA 238 DEB - Visible Passes

Search period start: 12 March 2026 00:00
Search period end: 22 March 2026 00:00
Orbit: 883 x 1328 km, 63.4° (Epoch: 10 January)

Date Brightness Start Highest point End Pass type
(mag) Time Alt. Az. Time Alt. Az. Time Alt. Az.
12 Mar 6.3 00:20:24 12° N 00:20:24 12° N 00:21:50 10° N visible
12 Mar 6.3 02:10:30 10° N 02:13:32 13° NNE 02:16:40 10° NE visible
12 Mar 5.5 04:00:31 10° NNW 04:07:01 32° NE 04:13:59 10° ESE visible
12 Mar 4.1 05:51:03 10° NW 05:58:37 73° WSW 06:06:44 10° SSE visible
12 Mar 4.1 19:44:44 10° S 19:49:51 30° ESE 19:51:21 27° E visible
12 Mar 4.4 21:34:31 10° WSW 21:48:14 - NNE 21:39:04 42° W visible
12 Mar 6.2 23:35:30 13° N 23:35:30 13° N 23:37:01 10° NNE visible
13 Mar 6.4 01:25:31 10° N 01:27:32 11° N 01:29:36 10° NNE visible
13 Mar 5.9 03:15:46 10° NNW 03:21:30 24° NE 03:27:35 10° E visible
13 Mar 4.2 05:06:02 10° NNW 05:13:36 79° NE 05:21:45 10° SE visible
13 Mar 4.7 19:01:31 10° SE 19:05:18 17° ESE 19:09:16 10° ENE visible
13 Mar 3.5 20:49:15 10° SW 20:55:15 76° NW 21:01:53 10° NNE visible
13 Mar 5.7 22:42:53 10° WNW 22:47:25 20° NNW 22:52:14 10° NNE visible
14 Mar 6.4 00:39:54 10° NNW 00:41:30 11° N 00:43:07 10° NNE visible
14 Mar 6.1 02:31:02 10° NNW 02:35:48 18° NNE 02:40:50 10° ENE visible
14 Mar 4.7 04:21:07 10° NNW 04:28:26 55° NE 04:36:21 10° SE visible
14 Mar 3.3 20:04:23 10° SSW 20:10:19 69° ESE 20:16:49 10° NE visible
14 Mar 5.3 21:56:38 10° W 22:01:50 27° NW 22:07:28 10° NNE visible
14 Mar 6.3 23:53:18 10° NNW 23:55:28 11° N 23:57:43 10° N visible
15 Mar 6.3 01:46:17 10° NNW 01:49:58 14° NNE 01:53:49 10° NE visible
15 Mar 5.2 03:36:18 10° NNW 03:43:09 39° NE 03:50:33 10° ESE visible
15 Mar 4.1 05:27:02 10° NW 05:34:27 58° WSW 05:42:25 10° SSE visible
15 Mar 3.8 19:20:01 10° S 19:25:33 41° ESE 19:31:32 10° NE visible
15 Mar 4.7 21:10:46 10° WSW 21:16:25 39° NW 21:22:39 10° NNE visible
15 Mar 6.2 23:06:25 10° NW 23:09:32 13° NNW 23:12:47 10° N visible
16 Mar 6.4 01:01:27 10° N 01:04:01 12° NNE 01:06:40 10° NNE visible
16 Mar 5.6 02:51:31 10° NNW 02:57:43 28° NE 03:04:21 10° E visible
16 Mar 4.0 04:41:55 10° NW 04:49:31 85° WSW 04:57:41 10° SSE visible
16 Mar 4.0 20:25:15 10° SW 20:31:12 58° NW 20:37:45 10° NNE visible
16 Mar 6.0 22:19:40 10° WNW 22:23:43 17° NNW 22:28:00 10° NNE visible
17 Mar 6.4 00:16:16 10° N 00:18:00 11° N 00:19:44 10° NNE visible
17 Mar 6.0 02:06:46 10° NNW 02:12:07 21° NNE 02:17:47 10° ENE visible
17 Mar 4.3 03:56:57 10° NNW 04:04:26 68° NE 04:12:32 10° SE visible
17 Mar 4.8 05:48:37 10° NW 05:55:02 29° WSW 06:01:47 10° SSW visible
17 Mar 3.4 19:40:09 10° SSW 19:46:10 90° ESE 19:52:47 10° NE visible
17 Mar 5.6 21:33:13 10° W 21:38:02 22° NNW 21:43:14 10° NNE visible
17 Mar 6.4 23:30:13 10° NNW 23:31:57 11° N 23:33:44 10° N visible
18 Mar 6.2 01:22:02 10° NNW 01:26:22 16° NNE 01:30:54 10° ENE visible
18 Mar 4.8 03:12:05 10° NNW 03:19:14 47° NE 03:26:57 10° ESE visible
18 Mar 4.3 05:03:06 10° NW 05:10:17 45° WSW 05:17:55 10° S visible
18 Mar 3.6 18:55:29 10° SSW 19:01:18 56° ESE 19:07:37 10° NE visible
18 Mar 5.2 20:47:07 10° WSW 20:52:32 31° NW 20:58:26 10° NNE visible
18 Mar 6.3 22:43:24 10° NW 22:45:58 12° NNW 22:48:37 10° N visible
19 Mar 6.3 00:37:16 10° N 00:40:29 13° NNE 00:43:48 10° NE visible
19 Mar 5.3 02:27:17 10° NNW 02:33:53 34° NE 02:40:59 10° ESE visible
19 Mar 3.9 04:17:52 10° NW 04:25:24 69° WSW 04:33:29 10° SSE visible
19 Mar 4.5 20:01:23 10° WSW 20:07:12 46° NW 20:13:36 10° NNE visible
19 Mar 6.2 21:56:32 10° NW 22:00:04 15° NNW 22:03:46 10° NNE visible
19 Mar 6.4 23:52:21 10° N 23:54:29 11° N 23:56:41 10° NNE visible
20 Mar 5.7 01:42:31 10° NNW 01:48:23 25° NE 01:54:37 10° E visible
20 Mar 4.0 03:32:49 10° NNW 03:40:24 83° NE 03:48:34 10° SE visible
20 Mar 5.0 05:25:04 10° WNW 05:30:45 23° WSW 05:36:40 10° SSW visible
20 Mar 3.8 19:16:04 10° SW 19:22:04 71° NW 19:28:41 10° NNE visible
20 Mar 5.9 21:09:55 10° WNW 21:14:18 19° NNW 21:19:00 10° NNE visible
20 Mar 6.4 23:06:52 10° NNW 23:08:27 11° N 23:10:04 10° NNE visible
21 Mar 6.0 00:57:47 10° NNW 01:02:43 19° NNE 01:07:56 10° ENE visible
21 Mar 4.4 02:47:54 10° NNW 02:55:16 58° NE 03:03:14 10° SE visible
21 Mar 4.5 04:39:15 10° NW 04:46:03 35° WSW 04:53:15 10° S visible
21 Mar 5.5 20:23:36 10° W 20:28:42 26° NW 20:34:14 10° NNE visible
21 Mar 6.4 22:20:23 10° NNW 22:22:26 11° N 22:24:31 10° N visible
